Time,TemperatureF,DewpointF,PressureIn,WindDirection,WindDirectionDegrees,WindSpeedMPH,WindSpeedGustMPH,Humidity,HourlyPrecipIn,Conditions,Clouds,dailyrainin,SoftwareType,DateUTC
2013-05-21 00:02:00,43.2,35.8,30.44,North,0,0.0,-999.0,74,0.00,,,-99.99,,2013-05-21 08:02:00,
2013-05-21 00:07:00,43.2,35.7,30.44,North,0,0.0,-999.0,74,0.00,,,-99.99,,2013-05-21 08:07:00,
2013-05-21 00:12:00,43.3,35.7,30.44,North,0,0.0,-999.0,74,0.00,,,-99.99,,2013-05-21 08:12:00,
2013-05-21 00:17:00,43.4,35.7,30.44,North,0,0.0,-999.0,74,0.00,,,-99.99,,2013-05-21 08:17:00,
2013-05-21 00:22:00,43.1,35.6,30.44,North,0,0.0,-999.0,74,0.00,,,-99.99,,2013-05-21 08:22:00,
2013-05-21 00:27:00,42.9,35.6,30.44,North,0,0.0,-999.0,75,0.00,,,-99.99,,2013-05-21 08:27:00,
2013-05-21 00:32:00,43.3,35.8,30.44,North,0,0.0,-999.0,74,0.00,,,-99.99,,2013-05-21 08:32:00,
2013-05-21 00:37:00,43.5,35.8,30.44,North,0,0.0,-999.0,74,0.00,,,-99.99,,2013-05-21 08:37:00,
2013-05-21 00:42:00,43.2,35.7,30.44,North,0,0.0,-999.0,74,0.00,,,-99.99,,2013-05-21 08:42:00,
2013-05-21 00:47:00,43.0,35.6,30.44,North,0,0.0,-999.0,74,0.00,,,-99.99,,2013-05-21 08:47:00,
2013-05-21 00:52:00,43.4,35.7,30.44,North,0,0.0,-999.0,74,0.00,,,-99.99,,2013-05-21 08:52:00,
2013-05-21 00:57:00,43.0,35.5,30.44,North,0,0.0,-999.0,74,0.00,,,-99.99,,2013-05-21 08:57:00,
2013-05-21 01:02:00,43.0,35.1,30.44,North,0,0.0,-999.0,73,0.00,,,-99.99,,2013-05-21 09:02:00,
2013-05-21 01:07:00,43.2,35.2,30.44,North,0,0.0,-999.0,72,0.00,,,-99.99,,2013-05-21 09:07:00,
2013-05-21 01:12:00,43.3,34.9,30.44,North,0,0.0,-999.0,71,0.00,,,-99.99,,2013-05-21 09:12:00,
2013-05-21 01:17:00,43.3,34.6,30.44,North,0,0.0,-999.0,71,0.00,,,-99.99,,2013-05-21 09:17:00,
2013-05-21 01:22:00,43.4,34.6,30.44,North,0,0.0,-999.0,70,0.00,,,-99.99,,2013-05-21 09:22:00,
2013-05-21 01:27:00,43.2,34.5,30.44,North,0,0.0,-999.0,71,0.00,,,-99.99,,2013-05-21 09:27:00,
2013-05-21 01:32:00,43.4,34.6,30.44,North,0,0.0,-999.0,70,0.00,,,-99.99,,2013-05-21 09:32:00,
2013-05-21 01:37:00,43.7,34.9,30.44,North,0,0.0,-999.0,70,0.00,,,-99.99,,2013-05-21 09:37:00,
2013-05-21 01:42:00,43.5,34.6,30.44,North,0,0.0,-999.0,70,0.00,,,-99.99,,2013-05-21 09:42:00,
2013-05-21 01:47:00,43.6,34.6,30.44,North,0,0.0,-999.0,70,0.00,,,-99.99,,2013-05-21 09:47:00,
2013-05-21 01:52:00,43.2,34.6,30.44,North,0,0.0,-999.0,71,0.00,,,-99.99,,2013-05-21 09:52:00,
2013-05-21 01:57:00,43.5,34.9,30.44,North,0,0.0,-999.0,71,0.00,,,-99.99,,2013-05-21 09:57:00,
2013-05-21 02:02:00,43.3,34.8,30.43,North,0,0.0,-999.0,71,0.00,,,-99.99,,2013-05-21 10:02:00,
2013-05-21 02:07:00,43.4,34.7,30.43,North,0,0.0,-999.0,71,0.00,,,-99.99,,2013-05-21 10:07:00,
2013-05-21 02:12:00,43.3,34.7,30.43,North,0,0.0,-999.0,71,0.00,,,-99.99,,2013-05-21 10:12:00,
2013-05-21 02:17:00,43.3,34.9,30.43,North,0,0.0,-999.0,72,0.00,,,-99.99,,2013-05-21 10:17:00,
2013-05-21 02:22:00,43.2,34.8,30.43,North,0,0.0,-999.0,72,0.00,,,-99.99,,2013-05-21 10:22:00,
2013-05-21 02:27:00,43.3,34.9,30.43,North,0,0.0,-999.0,72,0.00,,,-99.99,,2013-05-21 10:27:00,
2013-05-21 02:32:00,43.4,35.0,30.43,North,0,0.0,-999.0,72,0.00,,,-99.99,,2013-05-21 10:32:00,
2013-05-21 02:37:00,43.0,35.0,30.43,North,0,0.0,-999.0,73,0.00,,,-99.99,,2013-05-21 10:37:00,
2013-05-21 02:42:00,43.1,35.2,30.43,North,0,0.0,-999.0,73,0.00,,,-99.99,,2013-05-21 10:42:00,
2013-05-21 02:47:00,43.2,35.5,30.43,North,0,0.0,-999.0,74,0.00,,,-99.99,,2013-05-21 10:47:00,
2013-05-21 02:52:00,43.0,35.5,30.43,North,0,0.0,-999.0,74,0.00,,,-99.99,,2013-05-21 10:52:00,
2013-05-21 02:57:00,43.2,35.8,30.43,North,0,0.0,-999.0,74,0.00,,,-99.99,,2013-05-21 10:57:00,
2013-05-21 03:02:00,43.1,35.7,30.42,North,0,0.0,-999.0,74,0.00,,,-99.99,,2013-05-21 11:02:00,
2013-05-21 03:07:00,43.0,35.6,30.42,North,0,0.0,-999.0,74,0.00,,,-99.99,,2013-05-21 11:07:00,
2013-05-21 03:12:00,43.1,35.6,30.42,North,0,0.0,-999.0,74,0.00,,,-99.99,,2013-05-21 11:12:00,
2013-05-21 03:17:00,42.7,35.3,30.42,North,0,0.0,-999.0,75,0.00,,,-99.99,,2013-05-21 11:17:00,
2013-05-21 03:22:00,42.4,35.5,30.42,North,0,0.0,-999.0,76,0.00,,,-99.99,,2013-05-21 11:22:00,
2013-05-21 03:27:00,42.3,35.8,30.42,North,0,0.0,-999.0,77,0.00,,,-99.99,,2013-05-21 11:27:00,
2013-05-21 03:32:00,42.5,36.1,30.42,North,0,0.0,-999.0,77,0.00,,,-99.99,,2013-05-21 11:32:00,
2013-05-21 03:37:00,42.6,36.0,30.42,North,0,0.0,-999.0,77,0.00,,,-99.99,,2013-05-21 11:37:00,
2013-05-21 03:42:00,42.7,36.1,30.42,North,0,0.0,-999.0,77,0.00,,,-99.99,,2013-05-21 11:42:00,
2013-05-21 03:47:00,42.7,36.1,30.42,North,0,0.0,-999.0,77,0.00,,,-99.99,,2013-05-21 11:47:00,
2013-05-21 03:52:00,42.9,36.2,30.42,North,0,0.0,-999.0,76,0.00,,,-99.99,,2013-05-21 11:52:00,
2013-05-21 03:57:00,42.7,36.1,30.42,North,0,0.0,-999.0,77,0.00,,,-99.99,,2013-05-21 11:57:00,
2013-05-21 04:02:00,42.5,36.1,30.41,North,0,0.0,-999.0,78,0.00,,,-99.99,,2013-05-21 12:02:00,
2013-05-21 04:07:00,42.8,36.3,30.41,North,0,0.0,-999.0,77,0.00,,,-99.99,,2013-05-21 12:07:00,
2013-05-21 04:12:00,42.9,36.1,30.41,North,0,0.0,-999.0,76,0.00,,,-99.99,,2013-05-21 12:12:00,
2013-05-21 04:17:00,43.0,36.0,30.41,North,0,0.0,-999.0,76,0.00,,,-99.99,,2013-05-21 12:17:00,
2013-05-21 04:22:00,43.0,35.9,30.41,North,0,0.0,-999.0,75,0.00,,,-99.99,,2013-05-21 12:22:00,
2013-05-21 04:27:00,43.1,36.0,30.41,North,0,0.0,-999.0,75,0.00,,,-99.99,,2013-05-21 12:27:00,
2013-05-21 04:32:00,42.9,36.0,30.41,North,0,0.0,-999.0,76,0.00,,,-99.99,,2013-05-21 12:32:00,
2013-05-21 04:37:00,42.8,35.9,30.41,North,0,0.0,-999.0,76,0.00,,,-99.99,,2013-05-21 12:37:00,
2013-05-21 04:42:00,43.0,35.8,30.41,North,0,0.0,-999.0,75,0.00,,,-99.99,,2013-05-21 12:42:00,
2013-05-21 04:47:00,42.7,35.5,30.41,North,0,0.0,-999.0,75,0.00,,,-99.99,,2013-05-21 12:47:00,
2013-05-21 04:52:00,43.0,35.7,30.41,North,0,0.0,-999.0,75,0.00,,,-99.99,,2013-05-21 12:52:00,
2013-05-21 04:57:00,43.0,35.7,30.41,North,0,0.0,-999.0,75,0.00,,,-99.99,,2013-05-21 12:57:00,
2013-05-21 05:02:00,42.7,35.4,30.40,North,0,0.0,-999.0,75,0.00,,,-99.99,,2013-05-21 13:02:00,
2013-05-21 05:07:00,42.7,35.4,30.40,North,0,0.0,-999.0,75,0.00,,,-99.99,,2013-05-21 13:07:00,
2013-05-21 05:12:00,42.5,35.7,30.40,North,0,0.0,-999.0,76,0.00,,,-99.99,,2013-05-21 13:12:00,
2013-05-21 05:17:00,42.7,35.6,30.40,North,0,0.0,-999.0,75,0.00,,,-99.99,,2013-05-21 13:17:00,
2013-05-21 05:22:00,43.0,35.8,30.40,North,0,0.0,-999.0,75,0.00,,,-99.99,,2013-05-21 13:22:00,
2013-05-21 05:27:00,42.9,35.5,30.40,North,0,0.0,-999.0,75,0.00,,,-99.99,,2013-05-21 13:27:00,
2013-05-21 05:32:00,42.9,35.7,30.40,North,0,0.0,-999.0,75,0.00,,,-99.99,,2013-05-21 13:32:00,
2013-05-21 05:37:00,42.9,35.4,30.40,North,0,0.0,-999.0,74,0.00,,,-99.99,,2013-05-21 13:37:00,
2013-05-21 05:42:00,43.1,35.6,30.40,North,0,0.0,-999.0,74,0.00,,,-99.99,,2013-05-21 13:42:00,
2013-05-21 05:47:00,43.2,35.2,30.40,North,0,0.0,-999.0,73,0.00,,,-99.99,,2013-05-21 13:47:00,
2013-05-21 05:52:00,43.0,35.4,30.40,North,0,0.0,-999.0,74,0.00,,,-99.99,,2013-05-21 13:52:00,
2013-05-21 05:57:00,42.8,35.3,30.40,North,0,0.0,-999.0,74,0.00,,,-99.99,,2013-05-21 13:57:00,
2013-05-21 06:02:00,42.9,35.5,30.39,North,0,0.0,-999.0,74,0.00,,,-99.99,,2013-05-21 14:02:00,
2013-05-21 06:07:00,42.9,35.6,30.39,North,0,0.0,-999.0,75,0.00,,,-99.99,,2013-05-21 14:07:00,
2013-05-21 06:12:00,43.3,36.4,30.39,North,0,0.0,-999.0,76,0.00,,,-99.99,,2013-05-21 14:12:00,
2013-05-21 06:17:00,43.4,36.4,30.39,North,0,0.0,-999.0,76,0.00,,,-99.99,,2013-05-21 14:17:00,
2013-05-21 06:22:00,43.4,36.4,30.39,North,0,0.0,-999.0,76,0.00,,,-99.99,,2013-05-21 14:22:00,
2013-05-21 06:27:00,43.2,36.6,30.39,North,0,0.0,-999.0,77,0.00,,,-99.99,,2013-05-21 14:27:00,
2013-05-21 06:32:00,42.9,36.2,30.39,North,0,0.0,-999.0,77,0.00,,,-99.99,,2013-05-21 14:32:00,
2013-05-21 06:37:00,42.8,36.1,30.39,North,0,0.0,-999.0,77,0.00,,,-99.99,,2013-05-21 14:37:00,
2013-05-21 06:42:00,42.9,36.3,30.39,North,0,0.0,-999.0,77,0.00,,,-99.99,,2013-05-21 14:42:00,
2013-05-21 06:47:00,42.9,36.6,30.39,North,0,0.0,-999.0,78,0.00,,,-99.99,,2013-05-21 14:47:00,
2013-05-21 06:52:00,43.0,36.6,30.39,North,0,0.0,-999.0,77,0.00,,,-99.99,,2013-05-21 14:52:00,
2013-05-21 06:57:00,43.0,36.6,30.39,North,0,0.0,-999.0,77,0.00,,,-99.99,,2013-05-21 14:57:00,
2013-05-21 07:02:00,43.3,36.7,30.38,North,0,0.0,-999.0,77,0.00,,,-99.99,,2013-05-21 15:02:00,
2013-05-21 07:07:00,43.5,37.0,30.38,North,0,0.0,-999.0,77,0.00,,,-99.99,,2013-05-21 15:07:00,
2013-05-21 07:12:00,43.5,36.9,30.38,North,0,0.0,-999.0,77,0.00,,,-99.99,,2013-05-21 15:12:00,
2013-05-21 07:17:00,43.7,36.7,30.38,North,0,0.0,-999.0,76,0.00,,,-99.99,,2013-05-21 15:17:00,
2013-05-21 07:22:00,43.7,36.8,30.38,North,0,0.0,-999.0,76,0.00,,,-99.99,,2013-05-21 15:22:00,
2013-05-21 07:27:00,43.7,36.9,30.38,North,0,0.0,-999.0,76,0.00,,,-99.99,,2013-05-21 15:27:00,
2013-05-21 07:32:00,43.5,37.0,30.38,North,0,0.0,-999.0,77,0.00,,,-99.99,,2013-05-21 15:32:00,
2013-05-21 07:37:00,43.8,37.0,30.38,North,0,0.0,-999.0,76,0.00,,,-99.99,,2013-05-21 15:37:00,
2013-05-21 07:42:00,43.9,36.9,30.38,North,0,0.0,-999.0,76,0.00,,,-99.99,,2013-05-21 15:42:00,
2013-05-21 07:47:00,44.0,36.8,30.38,North,0,0.0,-999.0,75,0.00,,,-99.99,,2013-05-21 15:47:00,
2013-05-21 07:52:00,44.0,36.8,30.38,North,0,0.0,-999.0,75,0.00,,,-99.99,,2013-05-21 15:52:00,
2013-05-21 07:57:00,44.0,36.8,30.38,North,0,0.0,-999.0,75,0.00,,,-99.99,,2013-05-21 15:57:00,
2013-05-21 08:02:00,44.3,37.0,30.37,North,0,0.0,-999.0,75,0.00,,,-99.99,,2013-05-21 16:02:00,
2013-05-21 08:07:00,44.0,37.0,30.37,North,0,0.0,-999.0,76,0.00,,,-99.99,,2013-05-21 16:07:00,
2013-05-21 08:12:00,44.3,37.3,30.37,North,0,0.0,-999.0,76,0.00,,,-99.99,,2013-05-21 16:12:00,
2013-05-21 08:17:00,44.2,37.2,30.37,North,0,0.0,-999.0,76,0.00,,,-99.99,,2013-05-21 16:17:00,
2013-05-21 08:22:00,44.2,37.0,30.37,North,0,0.0,-999.0,75,0.00,,,-99.99,,2013-05-21 16:22:00,
2013-05-21 08:27:00,44.2,37.0,30.37,North,0,0.0,-999.0,75,0.00,,,-99.99,,2013-05-21 16:27:00,
2013-05-21 08:32:00,44.3,36.9,30.37,North,0,0.0,-999.0,74,0.00,,,-99.99,,2013-05-21 16:32:00,
2013-05-21 08:37:00,44.5,36.8,30.37,North,0,0.0,-999.0,74,0.00,,,-99.99,,2013-05-21 16:37:00,
2013-05-21 08:42:00,44.4,36.4,30.37,North,0,0.0,-999.0,73,0.00,,,-99.99,,2013-05-21 16:42:00,
2013-05-21 08:47:00,44.8,36.7,30.37,North,0,0.0,-999.0,72,0.00,,,-99.99,,2013-05-21 16:47:00,
2013-05-21 08:52:00,44.9,36.6,30.37,North,0,0.0,-999.0,72,0.00,,,-99.99,,2013-05-21 16:52:00,
2013-05-21 08:58:00,44.7,36.7,30.37,North,0,0.0,-999.0,73,0.00,,,-99.99,,2013-05-21 16:58:00,
2013-05-21 09:03:00,44.7,37.2,30.36,North,0,0.0,-999.0,74,0.00,,,-99.99,,2013-05-21 17:03:00,
2013-05-21 09:08:00,44.4,37.5,30.36,North,0,0.0,-999.0,76,0.00,,,-99.99,,2013-05-21 17:08:00,
2013-05-21 09:13:00,44.4,37.4,30.36,North,0,0.0,-999.0,76,0.00,,,-99.99,,2013-05-21 17:13:00,
2013-05-21 09:18:00,44.8,37.3,30.36,North,0,0.0,-999.0,74,0.00,,,-99.99,,2013-05-21 17:18:00,
2013-05-21 09:23:00,45.0,37.1,30.36,North,0,0.0,-999.0,73,0.00,,,-99.99,,2013-05-21 17:23:00,
2013-05-21 09:28:00,45.3,37.3,30.36,North,0,0.0,-999.0,73,0.00,,,-99.99,,2013-05-21 17:28:00,
2013-05-21 09:33:00,45.2,37.4,30.36,North,0,0.0,-999.0,73,0.00,,,-99.99,,2013-05-21 17:33:00,
2013-05-21 09:38:00,45.6,37.7,30.36,North,0,0.0,-999.0,73,0.00,,,-99.99,,2013-05-21 17:38:00,
2013-05-21 09:43:00,46.0,37.8,30.36,North,0,0.0,-999.0,72,0.00,,,-99.99,,2013-05-21 17:43:00,
2013-05-21 09:48:00,46.4,37.2,30.36,North,0,0.0,-999.0,70,0.00,,,-99.99,,2013-05-21 17:48:00,
2013-05-21 09:53:00,46.8,36.7,30.36,North,0,0.0,-999.0,67,0.00,,,-99.99,,2013-05-21 17:53:00,
2013-05-21 09:58:00,47.2,36.7,30.36,North,0,0.0,-999.0,66,0.00,,,-99.99,,2013-05-21 17:58:00,
2013-05-21 10:03:00,47.5,36.8,30.35,North,0,0.0,-999.0,66,0.00,,,-99.99,,2013-05-21 18:03:00,
2013-05-21 10:08:00,47.6,37.0,30.35,North,0,0.0,-999.0,66,0.00,,,-99.99,,2013-05-21 18:08:00,
2013-05-21 10:13:00,48.1,37.4,30.35,North,0,0.0,-999.0,66,0.00,,,-99.99,,2013-05-21 18:13:00,
2013-05-21 10:18:00,47.8,38.1,30.35,North,0,0.0,-999.0,68,0.00,,,-99.99,,2013-05-21 18:18:00,
2013-05-21 10:23:00,48.3,37.3,30.35,North,0,0.0,-999.0,65,0.00,,,-99.99,,2013-05-21 18:23:00,
2013-05-21 10:28:00,48.6,36.9,30.35,North,0,0.0,-999.0,63,0.00,,,-99.99,,2013-05-21 18:28:00,
2013-05-21 10:33:00,49.0,37.9,30.35,North,0,0.0,-999.0,65,0.00,,,-99.99,,2013-05-21 18:33:00,
2013-05-21 10:38:00,48.9,37.8,30.35,North,0,0.0,-999.0,65,0.00,,,-99.99,,2013-05-21 18:38:00,
2013-05-21 10:43:00,48.9,36.7,30.35,North,0,0.0,-999.0,62,0.00,,,-99.99,,2013-05-21 18:43:00,
2013-05-21 10:48:00,49.1,36.7,30.35,North,0,0.0,-999.0,62,0.00,,,-99.99,,2013-05-21 18:48:00,
2013-05-21 10:53:00,48.7,36.7,30.35,North,0,0.0,-999.0,63,0.00,,,-99.99,,2013-05-21 18:53:00,
2013-05-21 10:58:00,49.3,37.0,30.35,North,0,0.0,-999.0,62,0.00,,,-99.99,,2013-05-21 18:58:00,
2013-05-21 11:03:00,49.4,37.1,30.33,North,0,0.0,-999.0,62,0.00,,,-99.99,,2013-05-21 19:03:00,
2013-05-21 11:08:00,48.7,36.8,30.33,North,0,0.0,-999.0,63,0.00,,,-99.99,,2013-05-21 19:08:00,
2013-05-21 11:13:00,48.8,36.9,30.33,North,0,0.0,-999.0,63,0.00,,,-99.99,,2013-05-21 19:13:00,
2013-05-21 11:18:00,49.2,36.9,30.33,North,0,0.0,-999.0,62,0.00,,,-99.99,,2013-05-21 19:18:00,
2013-05-21 11:23:00,49.4,36.9,30.33,North,0,0.0,-999.0,61,0.00,,,-99.99,,2013-05-21 19:23:00,
2013-05-21 11:28:00,49.4,36.8,30.33,North,0,0.0,-999.0,61,0.00,,,-99.99,,2013-05-21 19:28:00,
2013-05-21 11:33:00,49.8,37.1,30.33,North,0,0.0,-999.0,61,0.00,,,-99.99,,2013-05-21 19:33:00,
2013-05-21 11:38:00,49.9,37.7,30.33,North,0,0.0,-999.0,62,0.00,,,-99.99,,2013-05-21 19:38:00,
2013-05-21 11:43:00,49.6,38.6,30.33,North,0,0.0,-999.0,65,0.00,,,-99.99,,2013-05-21 19:43:00,
2013-05-21 11:48:00,49.3,38.6,30.33,North,0,0.0,-999.0,66,0.00,,,-99.99,,2013-05-21 19:48:00,
2013-05-21 11:53:00,48.3,38.4,30.33,North,0,0.0,-999.0,68,0.00,,,-99.99,,2013-05-21 19:53:00,
2013-05-21 11:58:00,48.3,38.2,30.33,North,0,0.0,-999.0,67,0.00,,,-99.99,,2013-05-21 19:58:00,
2013-05-21 12:03:00,49.2,37.7,30.33,North,0,0.0,-999.0,64,0.00,,,-99.99,,2013-05-21 20:03:00,
2013-05-21 12:08:00,48.6,37.0,30.33,North,0,0.0,-999.0,63,0.00,,,-99.99,,2013-05-21 20:08:00,
2013-05-21 12:13:00,48.8,37.2,30.33,North,0,0.0,-999.0,64,0.00,,,-99.99,,2013-05-21 20:13:00,
2013-05-21 12:18:00,48.2,37.9,30.33,North,0,0.0,-999.0,67,0.00,,,-99.99,,2013-05-21 20:18:00,
2013-05-21 12:23:00,47.7,37.0,30.33,North,0,0.0,-999.0,66,0.00,,,-99.99,,2013-05-21 20:23:00,
2013-05-21 12:28:00,47.4,37.2,30.33,North,0,0.0,-999.0,67,0.00,,,-99.99,,2013-05-21 20:28:00,
2013-05-21 12:33:00,47.7,37.1,30.33,North,0,0.0,-999.0,66,0.00,,,-99.99,,2013-05-21 20:33:00,
2013-05-21 12:38:00,47.5,37.1,30.33,North,0,0.0,-999.0,67,0.00,,,-99.99,,2013-05-21 20:38:00,
2013-05-21 12:43:00,47.2,37.5,30.33,North,0,0.0,-999.0,68,0.00,,,-99.99,,2013-05-21 20:43:00,
2013-05-21 12:48:00,47.4,37.4,30.33,North,0,0.0,-999.0,68,0.00,,,-99.99,,2013-05-21 20:48:00,
2013-05-21 12:53:00,47.7,37.6,30.33,North,0,0.0,-999.0,67,0.00,,,-99.99,,2013-05-21 20:53:00,
2013-05-21 12:58:00,48.6,37.8,30.33,North,0,0.0,-999.0,66,0.00,,,-99.99,,2013-05-21 20:58:00,
2013-05-21 13:03:00,48.6,37.5,30.32,North,0,0.0,-999.0,65,0.00,,,-99.99,,2013-05-21 21:03:00,
2013-05-21 13:08:00,48.7,37.2,30.32,North,0,0.0,-999.0,64,0.00,,,-99.99,,2013-05-21 21:08:00,
2013-05-21 13:13:00,48.4,37.4,30.32,North,0,0.0,-999.0,65,0.00,,,-99.99,,2013-05-21 21:13:00,
2013-05-21 13:18:00,48.1,37.2,30.32,North,0,0.0,-999.0,65,0.00,,,-99.99,,2013-05-21 21:18:00,
2013-05-21 13:23:00,48.0,37.1,30.32,North,0,0.0,-999.0,65,0.00,,,-99.99,,2013-05-21 21:23:00,
2013-05-21 13:28:00,48.4,37.7,30.32,North,0,0.0,-999.0,66,0.00,,,-99.99,,2013-05-21 21:28:00,
2013-05-21 13:33:00,48.3,37.2,30.32,North,0,0.0,-999.0,65,0.00,,,-99.99,,2013-05-21 21:33:00,
2013-05-21 13:38:00,47.9,38.3,30.32,North,0,0.0,-999.0,69,0.00,,,-99.99,,2013-05-21 21:38:00,
2013-05-21 13:43:00,47.3,38.3,30.32,North,0,0.0,-999.0,70,0.00,,,-99.99,,2013-05-21 21:43:00,
2013-05-21 13:48:00,47.7,38.4,30.32,North,0,0.0,-999.0,69,0.00,,,-99.99,,2013-05-21 21:48:00,
2013-05-21 13:53:00,47.5,38.5,30.32,North,0,0.0,-999.0,70,0.00,,,-99.99,,2013-05-21 21:53:00,
2013-05-21 13:58:00,47.4,38.6,30.32,North,0,0.0,-999.0,71,0.00,,,-99.99,,2013-05-21 21:58:00,
2013-05-21 14:03:00,47.0,38.7,30.31,North,0,0.0,-999.0,72,0.00,,,-99.99,,2013-05-21 22:03:00,
2013-05-21 14:08:00,47.3,38.5,30.31,North,0,0.0,-999.0,71,0.00,,,-99.99,,2013-05-21 22:08:00,
2013-05-21 14:13:00,47.3,38.5,30.31,North,0,0.0,-999.0,71,0.00,,,-99.99,,2013-05-21 22:13:00,
2013-05-21 14:18:00,47.0,38.2,30.31,North,0,0.0,-999.0,71,0.00,,,-99.99,,2013-05-21 22:18:00,
2013-05-21 14:23:00,47.4,38.5,30.31,North,0,0.0,-999.0,71,0.00,,,-99.99,,2013-05-21 22:23:00,
2013-05-21 14:28:00,48.0,38.9,30.31,North,0,0.0,-999.0,70,0.00,,,-99.99,,2013-05-21 22:28:00,
2013-05-21 14:33:00,47.7,38.8,30.31,North,0,0.0,-999.0,71,0.00,,,-99.99,,2013-05-21 22:33:00,
2013-05-21 14:38:00,47.8,38.7,30.31,North,0,0.0,-999.0,70,0.00,,,-99.99,,2013-05-21 22:38:00,
2013-05-21 14:43:00,48.0,38.8,30.31,North,0,0.0,-999.0,70,0.00,,,-99.99,,2013-05-21 22:43:00,
2013-05-21 14:48:00,47.8,37.8,30.31,North,0,0.0,-999.0,68,0.00,,,-99.99,,2013-05-21 22:48:00,
2013-05-21 14:53:00,48.3,38.0,30.31,North,0,0.0,-999.0,67,0.00,,,-99.99,,2013-05-21 22:53:00,
2013-05-21 14:58:00,48.8,38.2,30.31,North,0,0.0,-999.0,66,0.00,,,-99.99,,2013-05-21 22:58:00,
2013-05-21 15:03:00,48.9,38.4,30.29,North,0,0.0,-999.0,66,0.00,,,-99.99,,2013-05-21 23:03:00,
2013-05-21 15:08:00,48.4,38.5,30.29,North,0,0.0,-999.0,68,0.00,,,-99.99,,2013-05-21 23:08:00,
2013-05-21 15:13:00,48.1,39.1,30.29,North,0,0.0,-999.0,70,0.00,,,-99.99,,2013-05-21 23:13:00,
2013-05-21 15:18:00,48.3,38.9,30.29,North,0,0.0,-999.0,69,0.00,,,-99.99,,2013-05-21 23:18:00,
2013-05-21 15:23:00,48.4,39.3,30.29,North,0,0.0,-999.0,70,0.00,,,-99.99,,2013-05-21 23:23:00,
2013-05-21 15:28:00,48.0,39.0,30.29,North,0,0.0,-999.0,70,0.00,,,-99.99,,2013-05-21 23:28:00,
2013-05-21 15:33:00,48.3,39.1,30.29,North,0,0.0,-999.0,70,0.00,,,-99.99,,2013-05-21 23:33:00,
2013-05-21 15:38:00,48.3,39.1,30.29,North,0,0.0,-999.0,70,0.00,,,-99.99,,2013-05-21 23:38:00,
2013-05-21 15:43:00,47.8,39.0,30.29,North,0,0.0,-999.0,71,0.00,,,-99.99,,2013-05-21 23:43:00,
2013-05-21 15:48:00,48.3,39.3,30.29,North,0,0.0,-999.0,71,0.00,,,-99.99,,2013-05-21 23:48:00,
2013-05-21 15:53:00,47.9,38.8,30.29,North,0,0.0,-999.0,70,0.00,,,-99.99,,2013-05-21 23:53:00,
2013-05-21 15:58:00,48.9,39.4,30.29,North,0,0.0,-999.0,69,0.00,,,-99.99,,2013-05-21 23:58:00,
2013-05-21 16:03:00,48.4,38.9,30.28,North,0,0.0,-999.0,69,0.00,,,-99.99,,2013-05-22 00:03:00,
2013-05-21 16:08:00,48.0,38.7,30.28,North,0,0.0,-999.0,70,0.00,,,-99.99,,2013-05-22 00:08:00,
2013-05-21 16:13:00,47.7,38.7,30.28,North,0,0.0,-999.0,70,0.00,,,-99.99,,2013-05-22 00:13:00,
2013-05-21 16:18:00,48.5,38.2,30.28,North,0,0.0,-999.0,67,0.00,,,-99.99,,2013-05-22 00:18:00,
2013-05-21 16:23:00,48.7,38.3,30.28,North,0,0.0,-999.0,67,0.00,,,-99.99,,2013-05-22 00:23:00,
2013-05-21 16:28:00,48.9,38.2,30.28,North,0,0.0,-999.0,66,0.00,,,-99.99,,2013-05-22 00:28:00,
2013-05-21 16:33:00,48.8,38.1,30.28,North,0,0.0,-999.0,66,0.00,,,-99.99,,2013-05-22 00:33:00,
2013-05-21 16:38:00,48.3,37.9,30.28,North,0,0.0,-999.0,67,0.00,,,-99.99,,2013-05-22 00:38:00,
2013-05-21 16:43:00,48.5,38.1,30.28,North,0,0.0,-999.0,67,0.00,,,-99.99,,2013-05-22 00:43:00,
2013-05-21 16:48:00,48.5,38.7,30.28,North,0,0.0,-999.0,68,0.00,,,-99.99,,2013-05-22 00:48:00,
2013-05-21 16:53:00,47.1,38.7,30.28,North,0,0.0,-999.0,72,0.00,,,-99.99,,2013-05-22 00:53:00,
2013-05-21 16:58:00,47.0,39.1,30.28,North,0,0.0,-999.0,73,0.00,,,-99.99,,2013-05-22 00:58:00,
2013-05-21 17:03:00,46.8,38.8,30.25,North,0,0.0,-999.0,73,0.00,,,-99.99,,2013-05-22 01:03:00,
2013-05-21 17:08:00,46.6,38.7,30.25,North,0,0.0,-999.0,73,0.00,,,-99.99,,2013-05-22 01:08:00,
2013-05-21 17:13:00,46.5,39.2,30.25,North,0,0.0,-999.0,75,0.00,,,-99.99,,2013-05-22 01:13:00,
2013-05-21 17:18:00,46.4,39.4,30.25,North,0,0.0,-999.0,76,0.00,,,-99.99,,2013-05-22 01:18:00,
2013-05-21 17:23:00,46.4,39.8,30.25,North,0,0.0,-999.0,77,0.00,,,-99.99,,2013-05-22 01:23:00,
2013-05-21 17:28:00,45.7,39.7,30.25,North,0,0.0,-999.0,79,0.00,,,-99.99,,2013-05-22 01:28:00,
2013-05-21 17:33:00,45.6,40.0,30.25,North,0,0.0,-999.0,80,0.00,,,-99.99,,2013-05-22 01:33:00,
2013-05-21 17:38:00,45.3,40.2,30.25,North,0,0.0,-999.0,81,0.00,,,-99.99,,2013-05-22 01:38:00,
2013-05-21 17:43:00,45.8,40.0,30.25,North,0,0.0,-999.0,80,0.00,,,-99.99,,2013-05-22 01:43:00,
2013-05-21 17:48:00,45.8,39.5,30.25,North,0,0.0,-999.0,78,0.00,,,-99.99,,2013-05-22 01:48:00,
2013-05-21 17:53:00,46.1,39.9,30.25,North,0,0.0,-999.0,78,0.00,,,-99.99,,2013-05-22 01:53:00,
2013-05-21 17:58:00,46.0,39.7,30.25,North,0,0.0,-999.0,78,0.00,,,-99.99,,2013-05-22 01:58:00,
2013-05-21 18:03:00,46.5,39.8,30.23,North,0,0.0,-999.0,77,0.00,,,-99.99,,2013-05-22 02:03:00,
2013-05-21 18:08:00,46.0,39.5,30.23,North,0,0.0,-999.0,77,0.00,,,-99.99,,2013-05-22 02:08:00,
2013-05-21 18:13:00,45.6,39.5,30.23,North,0,0.0,-999.0,79,0.00,,,-99.99,,2013-05-22 02:13:00,
2013-05-21 18:18:00,45.6,39.7,30.23,North,0,0.0,-999.0,79,0.00,,,-99.99,,2013-05-22 02:18:00,
2013-05-21 18:23:00,45.6,39.7,30.23,North,0,0.0,-999.0,79,0.00,,,-99.99,,2013-05-22 02:23:00,
2013-05-21 18:28:00,45.3,39.5,30.23,North,0,0.0,-999.0,80,0.00,,,-99.99,,2013-05-22 02:28:00,
2013-05-21 18:33:00,45.3,39.6,30.23,North,0,0.0,-999.0,80,0.00,,,-99.99,,2013-05-22 02:33:00,
2013-05-21 18:38:00,45.2,39.6,30.23,North,0,0.0,-999.0,80,0.00,,,-99.99,,2013-05-22 02:38:00,
2013-05-21 18:43:00,45.3,39.8,30.23,North,0,0.0,-999.0,80,0.00,,,-99.99,,2013-05-22 02:43:00,
2013-05-21 18:48:00,45.0,39.7,30.23,North,0,0.0,-999.0,81,0.00,,,-99.99,,2013-05-22 02:48:00,
2013-05-21 18:53:00,45.3,39.6,30.23,North,0,0.0,-999.0,80,0.00,,,-99.99,,2013-05-22 02:53:00,
2013-05-21 18:58:00,45.3,39.7,30.23,North,0,0.0,-999.0,80,0.00,,,-99.99,,2013-05-22 02:58:00,
2013-05-21 19:03:00,45.1,39.7,30.22,North,0,0.0,-999.0,80,0.00,,,-99.99,,2013-05-22 03:03:00,
2013-05-21 19:08:00,44.9,39.5,30.22,North,0,0.0,-999.0,81,0.00,,,-99.99,,2013-05-22 03:08:00,
2013-05-21 19:13:00,44.7,39.6,30.22,North,0,0.0,-999.0,81,0.00,,,-99.99,,2013-05-22 03:13:00,
2013-05-21 19:18:00,44.5,39.7,30.22,North,0,0.0,-999.0,83,0.00,,,-99.99,,2013-05-22 03:18:00,
2013-05-21 19:23:00,44.7,40.0,30.22,North,0,0.0,-999.0,83,0.00,,,-99.99,,2013-05-22 03:23:00,
2013-05-21 19:28:00,44.8,40.0,30.22,North,0,0.0,-999.0,83,0.00,,,-99.99,,2013-05-22 03:28:00,
2013-05-21 19:33:00,44.7,40.0,30.22,North,0,0.0,-999.0,83,0.00,,,-99.99,,2013-05-22 03:33:00,
2013-05-21 19:38:00,44.5,40.1,30.22,North,0,0.0,-999.0,84,0.00,,,-99.99,,2013-05-22 03:38:00,
2013-05-21 19:43:00,44.3,40.2,30.22,North,0,0.0,-999.0,85,0.00,,,-99.99,,2013-05-22 03:43:00,
2013-05-21 19:48:00,44.5,40.1,30.22,North,0,0.0,-999.0,84,0.00,,,-99.99,,2013-05-22 03:48:00,
2013-05-21 19:53:00,44.3,39.8,30.22,North,0,0.0,-999.0,83,0.00,,,-99.99,,2013-05-22 03:53:00,
2013-05-21 19:58:00,44.0,40.0,30.22,North,0,0.0,-999.0,85,0.00,,,-99.99,,2013-05-22 03:58:00,
2013-05-21 20:01:00,44.3,40.1,30.20,North,0,0.0,-999.0,85,0.00,,,-99.99,,2013-05-22 04:01:00,
2013-05-21 20:02:00,44.2,40.0,30.20,North,0,0.0,-999.0,85,0.00,,,-99.99,,2013-05-22 04:02:00,
2013-05-21 20:03:00,44.2,40.0,30.20,North,0,0.0,-999.0,85,0.00,,,-99.99,,2013-05-22 04:03:00,
2013-05-21 20:08:00,43.8,39.9,30.20,North,0,0.0,-999.0,85,0.00,,,-99.99,,2013-05-22 04:08:00,
2013-05-21 20:10:00,43.7,39.7,30.20,North,0,0.0,-999.0,85,0.00,,,-99.99,,2013-05-22 04:10:00,
2013-05-21 20:15:00,43.7,40.0,30.20,North,0,0.0,-999.0,86,0.00,,,-99.99,,2013-05-22 04:15:00,
2013-05-21 20:20:00,43.9,40.0,30.20,North,0,0.0,-999.0,86,0.00,,,-99.99,,2013-05-22 04:20:00,
2013-05-21 20:25:00,43.8,39.9,30.20,North,0,0.0,-999.0,85,0.00,,,-99.99,,2013-05-22 04:25:00,
2013-05-21 20:30:00,43.9,40.0,30.20,North,0,0.0,-999.0,85,0.00,,,-99.99,,2013-05-22 04:30:00,
2013-05-21 20:35:00,43.8,40.0,30.20,North,0,0.0,-999.0,86,0.00,,,-99.99,,2013-05-22 04:35:00,
2013-05-21 20:40:00,43.8,40.0,30.20,North,0,0.0,-999.0,86,0.00,,,-99.99,,2013-05-22 04:40:00,
2013-05-21 20:45:00,43.5,39.8,30.20,North,0,0.0,-999.0,86,0.00,,,-99.99,,2013-05-22 04:45:00,
2013-05-21 20:50:00,43.6,40.0,30.20,North,0,0.0,-999.0,86,0.00,,,-99.99,,2013-05-22 04:50:00,
2013-05-21 20:55:00,43.7,40.0,30.20,North,0,0.0,-999.0,86,0.00,,,-99.99,,2013-05-22 04:55:00,
2013-05-21 21:00:00,43.6,40.0,30.19,North,0,0.0,-999.0,86,0.00,,,-99.99,,2013-05-22 05:00:00,
2013-05-21 21:05:00,43.7,39.9,30.19,North,0,0.0,-999.0,86,0.00,,,-99.99,,2013-05-22 05:05:00,
2013-05-21 21:10:00,43.7,40.1,30.19,North,0,0.0,-999.0,86,0.00,,,-99.99,,2013-05-22 05:10:00,
2013-05-21 21:15:00,43.7,40.2,30.19,North,0,0.0,-999.0,87,0.00,,,-99.99,,2013-05-22 05:15:00,
2013-05-21 21:20:00,43.8,40.1,30.19,North,0,0.0,-999.0,86,0.00,,,-99.99,,2013-05-22 05:20:00,
2013-05-21 21:25:00,43.7,39.9,30.19,North,0,0.0,-999.0,86,0.00,,,-99.99,,2013-05-22 05:25:00,
2013-05-21 21:30:00,43.6,39.9,30.19,North,0,0.0,-999.0,86,0.00,,,-99.99,,2013-05-22 05:30:00,
2013-05-21 21:35:00,43.4,40.1,30.19,North,0,0.0,-999.0,88,0.00,,,-99.99,,2013-05-22 05:35:00,
2013-05-21 21:40:00,43.2,40.0,30.19,North,0,0.0,-999.0,88,0.00,,,-99.99,,2013-05-22 05:40:00,
2013-05-21 21:45:00,43.1,40.0,30.19,North,0,0.0,-999.0,88,0.00,,,-99.99,,2013-05-22 05:45:00,
2013-05-21 21:50:00,43.3,40.2,30.19,North,0,0.0,-999.0,88,0.00,,,-99.99,,2013-05-22 05:50:00,
2013-05-21 21:55:00,43.2,40.0,30.19,North,0,0.0,-999.0,88,0.00,,,-99.99,,2013-05-22 05:55:00,
2013-05-21 22:00:00,43.2,40.0,30.18,North,0,0.0,-999.0,88,0.00,,,-99.99,,2013-05-22 06:00:00,
2013-05-21 22:05:00,43.3,40.2,30.18,North,0,0.0,-999.0,88,0.00,,,-99.99,,2013-05-22 06:05:00,
2013-05-21 22:10:00,43.3,40.2,30.18,North,0,0.0,-999.0,88,0.00,,,-99.99,,2013-05-22 06:10:00,
2013-05-21 22:15:00,43.4,40.3,30.18,North,0,0.0,-999.0,88,0.00,,,-99.99,,2013-05-22 06:15:00,
2013-05-21 22:20:00,43.2,40.0,30.18,North,0,0.0,-999.0,88,0.00,,,-99.99,,2013-05-22 06:20:00,
2013-05-21 22:25:00,43.3,40.2,30.18,North,0,0.0,-999.0,88,0.00,,,-99.99,,2013-05-22 06:25:00,
2013-05-21 22:30:00,43.3,40.3,30.18,North,0,0.0,-999.0,88,0.00,,,-99.99,,2013-05-22 06:30:00,
2013-05-21 22:35:00,43.2,40.2,30.18,North,0,0.0,-999.0,88,0.00,,,-99.99,,2013-05-22 06:35:00,
2013-05-21 22:40:00,43.4,40.5,30.18,North,0,0.0,-999.0,89,0.00,,,-99.99,,2013-05-22 06:40:00,
2013-05-21 22:45:00,43.4,40.4,30.18,North,0,0.0,-999.0,89,0.00,,,-99.99,,2013-05-22 06:45:00,
2013-05-21 22:50:00,43.1,40.1,30.18,North,0,0.0,-999.0,88,0.00,,,-99.99,,2013-05-22 06:50:00,
2013-05-21 22:55:00,43.2,40.2,30.18,North,0,0.0,-999.0,89,0.00,,,-99.99,,2013-05-22 06:55:00,
2013-05-21 23:00:00,43.2,40.3,30.17,North,0,0.0,-999.0,89,0.00,,,-99.99,,2013-05-22 07:00:00,
2013-05-21 23:05:00,43.2,40.2,30.17,North,0,0.0,-999.0,88,0.00,,,-99.99,,2013-05-22 07:05:00,
2013-05-21 23:10:00,43.2,40.1,30.17,North,0,0.0,-999.0,88,0.00,,,-99.99,,2013-05-22 07:10:00,
2013-05-21 23:15:00,43.1,40.1,30.17,North,0,0.0,-999.0,89,0.00,,,-99.99,,2013-05-22 07:15:00,
2013-05-21 23:20:00,43.4,40.3,30.17,North,0,0.0,-999.0,88,0.00,,,-99.99,,2013-05-22 07:20:00,
2013-05-21 23:25:00,43.3,40.1,30.17,North,0,0.0,-999.0,88,0.00,,,-99.99,,2013-05-22 07:25:00,
2013-05-21 23:30:00,43.4,40.1,30.17,North,0,0.0,-999.0,88,0.00,,,-99.99,,2013-05-22 07:30:00,
2013-05-21 23:35:00,43.4,40.0,30.17,North,0,0.0,-999.0,87,0.00,,,-99.99,,2013-05-22 07:35:00,
2013-05-21 23:40:00,43.6,40.4,30.17,North,0,0.0,-999.0,88,0.00,,,-99.99,,2013-05-22 07:40:00,
2013-05-21 23:45:00,43.7,40.3,30.17,North,0,0.0,-999.0,87,0.00,,,-99.99,,2013-05-22 07:45:00,
2013-05-21 23:50:00,43.2,39.9,30.17,North,0,0.0,-999.0,87,0.00,,,-99.99,,2013-05-22 07:50:00,
2013-05-21 23:55:00,43.0,40.0,30.17,North,0,0.0,-999.0,88,0.00,,,-99.99,,2013-05-22 07:55:00,